SL-16 DEB, 22344

Orbit data source: Space-Track

SL-16 DEB, 22344 is space debris in LEO originally from a launch on Fri, 25 Dec 1992 UTC launched from the Tyuratam Missile And Space Complex (TTMTR). Debris objects in space refer to the collection of defunct objects orbiting the Earth. Examples of debris include non-operational satellites, rocket bodies, and fragments generated from explosions, collisions, or faulty payload assembly.

Loading next visibility...
Identifier
22344, 1992-093AH
Orbit
LEO
Last TLE update
21 hours ago
Origin
Manufacturer
Unknown
Mission
Spacecraft
Bus & Motor
Unknown
Mass
Unknown
Launch date (UTC)
1992-12-25 (33 years ago)
Launch vehicle
Unknown
Launch site
Tyuratam Missile And Space Complex (TTMTR)
Object type
Payload
Rocket body
Debris
Shape & HBR
Unknown
Radar Cross Section
Small (<0.1 m²)

Expand to show TLE details & history

TLE from 21 hours ago
0 SL-16 DEB
1 22344U 92093AH  25186.33933141  .00002091  00000-0  11185-2 0  9997
2 22344  71.0951 164.8670 0103998 343.2927  16.4776 14.11552318660286
Epoch: 2025-07-05T08:08Z
TLE epoch observation values (Epoch: 2025-07-05T08:08:38.233Z)
Latitude
-0.00003°
Longitude
119.12889°
Altitude
784.397 km
Speed
7.499 km/s
True Right ascension
10h 59m 28s
True Declination
0° 00' 00"
Sunlit
Object was in daylight at epoch
Visualization orbit readout
Latitude
39.30865°
Longitude
133.54041°
Altitude
820.819 km
Speed
7.466 km/s
Apparent Right ascension
08h 40m 14s
Apparent Declination
4° 22' 09"
Sunlit
Object is in daylight
Visualization observer readout
Local Sidereal Time
16:42:04
Azimuth
294.004° NW
Elevation
-19.802°
Doppler factor
1
Orbital elements
Apogee altitude
927.175 km
Perigee altitude
776.791 km
Semi-major axis
7,230.12 km
Eccentricity
0.0104
Inclination
71.0951°
RAAN
164.867°
Arg. of periapsis
343.2927°
True anomaly
Unknown
Mean anomaly
16.4776°
Eccentric anomaly
Unknown
Mean motion
3.53041 °/min
Orbital period
101.97 mins
BSTAR
0.0011185
Loading maneuver chart data...
Loading SW <> Apogee altitude chart data...
Loading historical data...
Loading historical data...
Loading historical data...
Loading historical data...
Loading historical data...
Loading historical data...
Loading historical data...

SL-16 DEB Visibility forecast

Observer location: undefined°, undefined°

Span
Click to sort rows by Start time (UTC) header in descending order
Start Az.
Max El. time (UTC)
Max El. Az.
Max El.
End time (UTC)
End Az.
9 mins2025-07-06 08:29:50.936Z2.799° NNE2025-07-06 08:33:50.936Z49.501° ENE24.171°2025-07-06 08:38:50.936Z109.562° ESE
9 mins2025-07-06 10:14:50.936Z319.393° NNW2025-07-06 10:18:50.936Z250.831° W37.428°2025-07-06 10:23:50.936Z182.166° SSW
8 mins2025-07-06 23:23:50.936Z176.797° S2025-07-06 23:26:50.936Z119.4° SE39.202°2025-07-06 23:31:50.936Z33.36° NE
7 mins2025-07-07 01:08:50.936Z268.087° W2025-07-07 01:11:50.936Z307.927° NW19.993°2025-07-07 01:15:50.936Z354.914° N
|